| time (UTC) | temp C | wind direction | speed KPH | gust KPH | rain 1hr cm | rain 24hr cm | rain mn cm | humidity % | barometer mb |
| 20260504224535 | 21 | 252 | 3.2 | 14.5 | 0.00 | 0.00 | 0.00 | 37 | 1006.4 |
| 20260504223044 | 21 | 269 | 4.8 | 16.1 | 0.00 | 0.00 | 0.00 | 34 | 1006.2 |
| 20260504221540 | 21 | 269 | 1.6 | 16.1 | 0.00 | 0.00 | 0.00 | 33 | 1006.0 |
| 20260504220040 | 21 | 168 | 6.4 | 20.9 | 0.00 | 0.00 | 0.00 | 33 | 1006.1 |
| 20260504214538 | 21 | 187 | 4.8 | 16.1 | 0.00 | 0.00 | 0.00 | 33 | 1006.1 |
| 20260504213054 | 22 | 315 | 4.8 | 17.7 | 0.00 | 0.00 | 0.00 | 33 | 1006.2 |
| 20260504211537 | 22 | 334 | 4.8 | 17.7 | 0.00 | 0.00 | 0.00 | 32 | 1006.2 |
| 20260504210041 | 22 | 205 | 6.4 | 16.1 | 0.00 | 0.00 | 0.00 | 32 | 1006.0 |
| 20260504204539 | 22 | 252 | 4.8 | 11.3 | 0.00 | 0.00 | 0.00 | 32 | 1006.1 |
| 20260504203038 | 21 | 277 | 6.4 | 25.7 | 0.00 | 0.00 | 0.00 | 32 | 1006.1 |
| 20260504201538 | 21 | 238 | 9.7 | 19.3 | 0.00 | 0.00 | 0.00 | 32 | 1006.1 |
| 20260504200036 | 23 | 279 | 9.7 | 20.9 | 0.00 | 0.00 | 0.00 | 30 | 1006.1 |
| 20260504194556 | 22 | 135 | 6.4 | 20.9 | 0.00 | 0.00 | 0.00 | 32 | 1006.2 |
| 20260504193051 | 22 | 277 | 6.4 | 29.0 | 0.00 | 0.00 | 0.00 | 29 | 1006.2 |
| 20260504191539 | 22 | 330 | 6.4 | 27.4 | 0.00 | 0.00 | 0.00 | 32 | 1006.3 |
| 20260504190041 | 22 | 227 | 9.7 | 19.3 | 0.00 | 0.00 | 0.00 | 29 | 1006.4 |
| 20260504184543 | 22 | 333 | 9.7 | 22.5 | 0.00 | 0.00 | 0.00 | 29 | 1006.8 |
| 20260504183042 | 22 | 244 | 4.8 | 25.7 | 0.00 | 0.00 | 0.00 | 31 | 1006.8 |
| 20260504181542 | 21 | 229 | 8.0 | 24.1 | 0.00 | 0.00 | 0.00 | 30 | 1006.9 |
| 20260504180039 | 21 | 248 | 9.7 | 20.9 | 0.00 | 0.00 | 0.00 | 31 | 1007.0 |
| 20260504174538 | 21 | 231 | 6.4 | 25.7 | 0.00 | 0.00 | 0.00 | 33 | 1007.2 |
| 20260504173049 | 21 | 179 | 8.0 | 27.4 | 0.00 | 0.00 | 0.00 | 31 | 1007.2 |
| 20260504171536 | 20 | 343 | 9.7 | 27.4 | 0.00 | 0.00 | 0.00 | 31 | 1007.2 |
| 20260504081541 | 5 | 0 | 0.0 | 0.0 | 0.00 | 0.00 | 0.00 | 76 | 1009.8 |
| 20260504044551 | 0 | 0 | 0.0 | 0.0 | 0.00 | 0.00 | 0.00 | 89 | 1009.9 |
| 20260504043044 | 0 | 0 | 0.0 | 0.0 | 0.00 | 0.00 | 0.00 | 87 | 1009.9 |
| 20260504041540 | 0 | 0 | 0.0 | 0.0 | 0.00 | 0.00 | 0.00 | 86 | 1009.7 |
| 20260504040040 | 0 | 0 | 0.0 | 0.0 | 0.00 | 0.00 | 0.00 | 85 | 1009.6 |
| 20260504034547 | 0 | 0 | 0.0 | 0.0 | 0.00 | 0.00 | 0.00 | 84 | 1009.6 |
| 20260504033049 | 0 | 0 | 0.0 | 0.0 | 0.00 | 0.00 | 0.00 | 83 | 1009.5 |
| 20260504031536 | 1 | 0 | 0.0 | 0.0 | 0.00 | 0.00 | 0.00 | 82 | 1009.5 |
| 20260504030041 | 1 | 0 | 0.0 | 0.0 | 0.00 | 0.00 | 0.00 | 82 | 1009.5 |
| 20260504024545 | 1 | 0 | 0.0 | 0.0 | 0.00 | 0.00 | 0.00 | 81 | 1009.4 |
| 20260504023039 | 2 | 0 | 0.0 | 0.0 | 0.00 | 0.00 | 0.00 | 79 | 1009.4 |
| 20260504021538 | 2 | 0 | 0.0 | 0.0 | 0.00 | 0.00 | 0.00 | 77 | 1009.4 |
| 20260504020036 | 3 | 0 | 0.0 | 0.0 | 0.00 | 0.00 | 0.00 | 75 | 1009.3 |
| 20260504014536 | 3 | 0 | 0.0 | 0.0 | 0.00 | 0.00 | 0.00 | 74 | 1009.2 |
| 20260504013048 | 4 | 0 | 0.0 | 0.0 | 0.00 | 0.00 | 0.00 | 69 | 1009.0 |
| 20260504011540 | 5 | 0 | 0.0 | 0.0 | 0.00 | 0.00 | 0.00 | 67 | 1008.9 |
| 20260504010051 | 5 | 0 | 0.0 | 0.0 | 0.00 | 0.00 | 0.00 | 66 | 1008.7 |
| 20260504004541 | 5 | 0 | 0.0 | 0.0 | 0.00 | 0.00 | 0.00 | 64 | 1008.6 |
| 20260504003037 | 6 | 0 | 0.0 | 0.0 | 0.00 | 0.00 | 0.00 | 62 | 1008.3 |
| 20260504001546 | 7 | 0 | 0.0 | 1.6 | 0.00 | 0.00 | 0.00 | 58 | 1008.2 |
| 20260504000039 | 8 | 0 | 0.0 | 1.6 | 0.00 | 0.00 | 0.00 | 54 | 1008.1 |
| 20260503234541 | 9 | 0 | 0.0 | 3.2 | 0.00 | 0.00 | 0.00 | 49 | 1007.9 |
| 20260503233038 | 10 | 0 | 0.0 | 6.4 | 0.00 | 0.00 | 0.00 | 45 | 1007.8 |
| 20260503231536 | 10 | 0 | 1.6 | 9.7 | 0.00 | 0.00 | 0.00 | 44 | 1007.7 |
| 20260503230036 | 10 | 0 | 1.6 | 9.7 | 0.00 | 0.00 | 0.00 | 44 | 1007.6 |